Location: Boiro
(42.6475°N, 8.8834°W)
Time: 17:45:53
(UTC+01:00)

Tiros 1 - Pass Details

Date: 10 December 2021
Orbit: 630 x 663 km, 48.4° (Epoch: 20 January)

Event Time Altitude Azimuth Distance (km) Brightness Sun altitude
Rises 20:36:57 0° 284° (WNW) 2,923 11.6 -27.6°
Reaches altitude 10° 20:39:23 10° 292° (WNW) 2,019 10.4 -28.1°
Enters shadow 20:42:25 32° 323° (NW) 1,090 8.5 -28.6°
Maximum altitude 20:43:46 40° 2° (N) 937 - -28.9°
Drops below altitude 10° 20:48:13 10° 73° (ENE) 2,037 - -29.7°
Sets 20:50:41 0° 81° (E) 2,953 - -30.1°
